Change the Weather History Date:

Tuesday, May 14, 2013

  Actual Average Record
Temperature  
Mean Temperature 52 °F -  
Max Temperature 66 °F 69 °F - ()
Min Temperature 39 °F 49 °F - ()
Degree Days  
Heating Degree Days 12    
Growing Degree Days 2 (Base 50)    
Moisture  
Dew Point 45 °F    
Average Humidity 71    
Maximum Humidity 93    
Minimum Humidity 46    
Precipitation  
Precipitation 0.00 in 0.09 in - ()
Sea Level Pressure  
Sea Level Pressure 29.94 in    
Wind  
Wind Speed 4 mph ()    
Max Wind Speed 9 mph    
Max Gust Speed -    
Visibility 6.8 miles    
Events      
T = Trace of Precipitation, MM = Missing Value Source: Averaged Metar Reports

Daily Weather History Graph

Daily Weather History Graph

Search for Another Location

Airport or City:

Trip Planner

Search our weather history database for the weather conditions in past years. The results will help you decide how hot, cold, wet, or windy it might be!

Date:

Astronomy

May. 14, 2013 Rise Set
Actual Time 5:11 AM CEST 8:28 PM CEST
Civil Twilight 4:33 AM CEST 9:06 PM CEST
Nautical Twilight 3:43 AM CEST 9:57 PM CEST
Astronomical Twilight 2:38 AM CEST 11:02 PM CEST
Moon 8:35 AM CEST (5/14) No Moon Set
Length of Visible Light 16h 32m
Length of Day
15h 16m
Waxing Crescent, 17% of the Moon is Illuminated
May 14
Waxing Crescent
May 18
First Quarter
May 25
Full
May 31
Last Quarter
Jun 8
New

Hourly Weather History & Observations

Time (CEST) Temp. Windchill Dew Point Humidity Pressure Visibility Wind Dir Wind Speed Gust Speed Precip Events Conditions
12:00 AM 46.4 °F 44.3 °F 41.0 °F 81% 29.98 in - WSW 4.6 mph - N/A   Clear
12:30 AM 46.4 °F 42.9 °F 41.0 °F 81% 29.98 in - West 6.9 mph - N/A   Clear
1:00 AM 46.4 °F - 41.0 °F 81% 29.98 in - Variable 2.3 mph - N/A   Clear
1:30 AM 44.6 °F 43.1 °F 41.0 °F 87% 29.98 in - West 3.5 mph - N/A   Clear
2:00 AM 43 °F - 39 °F 82% 30.01 in 22 mi West 4.5 mph - -   Clear
2:01 AM 44.6 °F 42.2 °F 41.0 °F 87% 29.98 in - WSW 4.6 mph - N/A   Clear
2:30 AM 44.6 °F 43.1 °F 39.2 °F 81% 29.98 in - West 3.5 mph - N/A   Clear
3:00 AM 44.6 °F - 39.2 °F 81% 29.98 in - WSW 2.3 mph - N/A   Clear
3:30 AM 42.8 °F 41.1 °F 39.2 °F 87% 29.98 in - West 3.5 mph - N/A   Clear
4:00 AM 41.0 °F - 37.4 °F 87% 29.98 in - Variable 1.2 mph - N/A   Clear
4:30 AM 42.8 °F - 39.2 °F 87% 29.98 in - Variable 2.3 mph - N/A   Clear
5:00 AM 41.0 °F 39.0 °F 39.2 °F 93% 29.98 in - West 3.5 mph - N/A   Clear
5:30 AM 41.0 °F - 39.2 °F 93% 29.98 in - Variable 2.3 mph - N/A   Clear
6:00 AM 42.8 °F - 39.2 °F 87% 29.98 in - Variable 1.2 mph - N/A   Clear
6:30 AM 44.6 °F - 41.0 °F 87% 29.98 in - NW 2.3 mph - N/A   Clear
7:00 AM 44.6 °F 40.7 °F 41.0 °F 87% 29.98 in - West 6.9 mph - N/A   Clear
7:30 AM 44.6 °F 40.7 °F 41.0 °F 87% 29.98 in - West 6.9 mph - N/A   Clear
8:00 AM 47 °F - 43 °F 79% 30.01 in 9 mi West 4.5 mph - -   Scattered Clouds
8:00 AM 46.4 °F 45.2 °F 42.8 °F 87% 29.98 in - West 3.5 mph - N/A   Clear
8:30 AM 50.0 °F - 44.6 °F 82% 29.98 in - Calm Calm - N/A   Clear
9:00 AM 53.6 °F - 44.6 °F 72% 29.98 in - Variable 1.2 mph - N/A   Clear
9:30 AM 53.6 °F - 46.4 °F 77% 29.98 in - West 6.9 mph - N/A   Clear
10:00 AM 55.4 °F - 46.4 °F 72% 29.98 in - West 3.5 mph - N/A   Clear
10:30 AM 59.0 °F - 46.4 °F 63% 29.98 in - West 5.8 mph - N/A   Clear
11:00 AM 59.0 °F - 46.4 °F 63% 29.98 in 6.2 mi WNW 5.8 mph - N/A   Mostly Cloudy
11:30 AM 60.8 °F - 48.2 °F 63% 29.98 in 6.2 mi West 4.6 mph - N/A   Scattered Clouds
12:00 PM 60.8 °F - 50.0 °F 68% 29.95 in 6.2 mi South 5.8 mph - N/A   Scattered Clouds
12:30 PM 59.0 °F - 50.0 °F 72% 29.95 in 6.2 mi SW 9.2 mph - N/A   Scattered Clouds
1:00 PM 59.0 °F - 50.0 °F 72% 29.95 in - SW 9.2 mph - N/A   Clear
1:30 PM 60.8 °F - 50.0 °F 68% 29.95 in - SW 5.8 mph - N/A   Clear
2:00 PM 63 °F - 48 °F 48% 29.94 in 22 mi ESE 2.2 mph - -   Partly Cloudy
2:00 PM 62.6 °F - 50.0 °F 63% 29.95 in - Variable 1.2 mph - N/A   Clear
2:30 PM 62.6 °F - 46.4 °F 55% 29.92 in - Variable 1.2 mph - N/A   Clear
3:00 PM 62.6 °F - 46.4 °F 55% 29.92 in - Variable 2.3 mph - N/A   Clear
3:30 PM 64.4 °F - 46.4 °F 52% 29.92 in - Variable 2.3 mph - N/A   Clear
4:00 PM 64.4 °F - 48.2 °F 56% 29.92 in - Variable 2.3 mph - N/A   Clear
4:30 PM 66.2 °F - 44.6 °F 46% 29.92 in - ENE 3.5 mph - N/A   Clear
5:00 PM 64.4 °F - 44.6 °F 49% 29.89 in - ESE 4.6 mph - N/A   Clear
5:30 PM 64.4 °F - 46.4 °F 52% 29.89 in - Variable 2.3 mph - N/A   Clear
6:00 PM 64.4 °F - 46.4 °F 52% 29.89 in - Variable 3.5 mph - N/A   Clear
6:30 PM 64.4 °F - 48.2 °F 56% 29.89 in - SE 4.6 mph - N/A   Clear
7:00 PM 64.4 °F - 48.2 °F 56% 29.89 in - SE 4.6 mph - N/A   Clear
7:30 PM 62.6 °F - 48.2 °F 59% 29.89 in - ESE 3.5 mph - N/A   Clear
8:00 PM 61 °F - 47 °F 50% 29.88 in 28 mi East 4.5 mph - -   Scattered Clouds
8:10 PM 60.8 °F - 46.4 °F 59% 29.89 in - East 3.5 mph - N/A   Clear
8:30 PM 60.8 °F - 46.4 °F 59% 29.89 in - East 4.6 mph - N/A   Clear
9:00 PM 60.8 °F - 48.2 °F 63% 29.89 in - ENE 4.6 mph - N/A   Clear
9:30 PM 57.2 °F - 48.2 °F 72% 29.89 in - NE 6.9 mph - N/A   Clear
10:00 PM 55.4 °F - 46.4 °F 72% 29.89 in - ENE 8.1 mph - N/A   Clear
10:30 PM 55.4 °F - 44.6 °F 67% 29.89 in - ENE 6.9 mph - N/A   Clear
11:00 PM 53.6 °F - 44.6 °F 72% 29.89 in - NE 8.1 mph - N/A   Clear
11:30 PM 51.8 °F - 44.6 °F 76% 29.86 in - ENE 6.9 mph - N/A   Clear